FW4266 Weather Reports


time (UTC)temp
F
wind
direction
speed
knots
gust
knots
rain 1hr
in
rain 24hr
in
rain mn
in
humidity
%
barometer
mb
20260508033516 63 34 0.9 1.7 0.00 0.00 0.00 59 1016.3
20260508033018 63 34 0.9 1.7 0.00 0.00 0.00 59 1016.2
20260508032517 63 34 0.9 1.7 0.00 0.00 0.00 59 1016.2
20260508032016 63 34 0.9 1.7 0.00 0.00 0.00 59 1016.1
20260508031517 63 34 0.9 1.7 0.00 0.00 0.00 59 1016.1
20260508031016 64 34 0.9 1.7 0.00 0.00 0.00 58 1015.9
20260508030517 64 34 0.9 1.7 0.00 0.00 0.00 58 1016.0
20260508030016 64 30 0.9 1.7 0.00 0.00 0.00 58 1015.9
20260508025515 64 29 0.9 1.7 0.00 0.00 0.00 58 1016.0
20260508025015 65 29 0.9 1.7 0.00 0.00 0.00 58 1016.0
20260508024524 65 29 0.0 1.7 0.00 0.00 0.00 57 1015.8
20260508024015 66 29 0.0 0.9 0.00 0.00 0.00 56 1015.7
20260508023514 66 29 0.0 0.9 0.00 0.00 0.00 55 1015.7
20260508023018 66 29 0.9 1.7 0.00 0.00 0.00 55 1015.7
20260508022513 67 28 0.9 1.7 0.00 0.00 0.00 54 1015.7
20260508022015 67 11 0.0 0.9 0.00 0.00 0.00 54 1015.5
20260508021515 68 259 0.0 0.9 0.00 0.00 0.00 52 1015.6
20260508021013 69 256 0.0 0.0 0.00 0.00 0.00 50 1015.7
20260508020512 70 256 0.0 0.9 0.00 0.00 0.00 49 1015.6
20260508020015 70 256 0.0 0.9 0.00 0.00 0.00 47 1015.7
20260508015515 70 252 0.0 1.7 0.00 0.00 0.00 47 1015.7
20260508015012 70 250 0.0 1.7 0.00 0.00 0.00 47 1015.7
20260508014512 71 251 0.0 1.7 0.00 0.00 0.00 48 1015.6
20260508014012 71 261 0.0 3.5 0.00 0.00 0.00 47 1015.5
20260508013511 71 260 0.9 3.5 0.00 0.00 0.00 46 1015.7
20260508013010 71 162 0.0 3.5 0.00 0.00 0.00 47 1015.5
20260508012513 72 252 0.0 3.5 0.00 0.00 0.00 46 1015.5
20260508012009 72 252 0.0 3.5 0.00 0.00 0.00 45 1015.4
20260508011508 72 267 0.9 3.5 0.00 0.00 0.00 45 1015.5
20260508011008 72 246 0.0 1.7 0.00 0.00 0.00 46 1015.5
20260508010508 72 250 0.0 3.5 0.00 0.00 0.00 45 1015.5
20260508010007 72 252 0.0 3.5 0.00 0.00 0.00 45 1015.4
20260508005513 73 255 0.0 2.6 0.00 0.00 0.00 45 1015.5
20260508005006 73 250 0.0 3.5 0.00 0.00 0.00 46 1015.6
20260508004506 73 240 0.9 3.5 0.00 0.00 0.00 44 1015.5
20260508004008 73 254 0.0 4.3 0.00 0.00 0.00 44 1015.5
20260508003505 73 255 0.9 4.3 0.00 0.00 0.00 45 1015.5
20260508003005 73 198 0.0 4.3 0.00 0.00 0.00 46 1015.5
20260508002504 73 255 0.9 3.5 0.00 0.00 0.00 44 1015.5
20260508002005 73 244 0.0 4.3 0.00 0.00 0.00 45 1015.6
20260508001503 74 255 0.9 4.3 0.00 0.00 0.00 43 1015.6
20260508001003 74 216 0.0 3.5 0.00 0.00 0.00 45 1015.7
20260508000501 74 285 0.9 4.3 0.00 0.00 0.00 43 1015.8
20260508000002 74 271 1.7 4.3 0.00 0.00 0.00 41 1015.8
20260507235502 75 242 0.0 4.3 0.00 0.00 0.00 45 1015.8
20260507235101 75 263 1.7 4.3 0.00 0.00 0.00 41 1015.7
20260507234600 75 213 1.7 4.3 0.00 0.00 0.00 40 1015.6
20260507234059 76 233 1.7 4.3 0.00 0.00 0.00 39 1015.6
20260507233558 76 265 0.9 3.5 0.00 0.00 0.00 41 1015.6
20260507233059 76 224 0.0 3.5 0.00 0.00 0.00 43 1015.6
20260507232558 75 276 0.9 5.2 0.00 0.00 0.00 40 1015.6
20260507232057 76 283 2.6 5.2 0.00 0.00 0.00 39 1015.5
20260507231608 77 242 0.9 4.3 0.00 0.00 0.00 42 1015.5
20260507231055 77 258 0.9 3.5 0.00 0.00 0.00 40 1015.5
20260507230555 76 246 0.0 4.3 0.00 0.00 0.00 44 1015.5
20260507230056 76 257 0.9 4.3 0.00 0.00 0.00 40 1015.5
20260507225553 76 250 0.9 5.2 0.00 0.00 0.00 41 1015.6
20260507225052 76 266 0.9 6.1 0.00 0.00 0.00 44 1015.6
20260507224603 76 238 0.0 6.1 0.00 0.00 0.00 40 1015.7
20260507224049 76 241 1.7 5.2 0.00 0.00 0.00 41 1015.8
20260507223548 76 244 0.9 7.0 0.00 0.00 0.00 41 1015.9
20260507223048 76 238 1.7 7.0 0.00 0.00 0.00 41 1016.0
20260507222549 76 214 0.9 6.1 0.00 0.00 0.00 43 1016.1
20260507222046 76 259 2.6 4.3 0.00 0.00 0.00 39 1016.2
20260507221546 76 248 0.0 3.5 0.00 0.00 0.00 39 1016.1
20260507221044 76 253 1.7 5.2 0.00 0.00 0.00 41 1016.2
20260507220545 77 274 1.7 5.2 0.00 0.00 0.00 40 1016.2
20260507220043 77 264 0.9 4.3 0.00 0.00 0.00 40 1016.3
20260507215545 77 243 0.9 4.3 0.00 0.00 0.00 41 1016.4
20260507215041 77 248 0.0 3.5 0.00 0.00 0.00 40 1016.4
20260507214540 76 267 0.9 4.3 0.00 0.00 0.00 42 1016.6
20260507214039 77 241 1.7 4.3 0.00 0.00 0.00 38 1016.6
20260507213538 77 243 0.9 3.5 0.00 0.00 0.00 46 1016.7
20260507213037 77 283 1.7 3.5 0.00 0.00 0.00 41 1016.7
20260507212539 76 246 0.9 3.5 0.00 0.00 0.00 40 1016.8
20260507212036 76 214 0.0 4.3 0.00 0.00 0.00 41 1016.9
20260507211540 76 207 0.9 4.3 0.00 0.00 0.00 46 1016.8
20260507211034 76 252 0.9 3.5 0.00 0.00 0.00 40 1016.9
20260507210534 76 222 0.9 3.5 0.00 0.00 0.00 40 1016.9
20260507210033 76 233 0.9 4.3 0.00 0.00 0.00 42 1017.0
20260507205534 76 288 0.9 3.5 0.00 0.00 0.00 41 1016.9
20260507205035 75 238 0.0 4.3 0.00 0.00 0.00 45 1016.9
20260507204530 76 261 0.9 4.3 0.00 0.00 0.00 41 1017.1
20260507204030 76 264 1.7 4.3 0.00 0.00 0.00 43 1017.1
20260507203528 75 262 0.9 3.5 0.00 0.00 0.00 42 1017.0
20260507203028 75 246 0.0 3.5 0.00 0.00 0.00 42 1017.2
20260507202526 75 227 0.9 4.3 0.00 0.00 0.00 45 1017.3
20260507202027 75 248 0.9 4.3 0.00 0.00 0.00 44 1017.4
20260507201525 74 308 0.0 5.2 0.00 0.00 0.00 43 1017.5
20260507201025 74 264 1.7 5.2 0.00 0.00 0.00 42 1017.5
20260507200523 74 252 0.0 5.2 0.00 0.00 0.00 45 1017.6
20260507200033 74 198 2.6 8.7 0.00 0.00 0.00 42 1017.6
20260507195524 75 257 1.7 8.7 0.00 0.00 0.00 41 1017.5
20260507195021 74 266 0.9 3.5 0.00 0.00 0.00 45 1017.6
20260507194520 74 255 0.0 6.1 0.00 0.00 0.00 45 1017.6
20260507194018 73 174 2.6 6.1 0.00 0.00 0.00 45 1017.7
20260507193521 73 188 1.7 4.3 0.00 0.00 0.00 44 1017.7
20260507193022 72 252 0.9 4.3 0.00 0.00 0.00 46 1017.7
20260507192515 72 221 0.9 4.3 0.00 0.00 0.00 48 1017.8
20260507192015 72 266 0.9 4.3 0.00 0.00 0.00 46 1018.0
20260507191515 72 257 0.9 7.0 0.00 0.00 0.00 49 1017.9
20260507191013 72 250 1.7 4.3 0.00 0.00 0.00 47 1018.1
20260507190515 72 268 0.9 3.5 0.00 0.00 0.00 46 1018.1
20260507190028 72 244 0.9 2.6 0.00 0.00 0.00 46 1018.2
20260507185511 71 218 0.9 2.6 0.00 0.00 0.00 45 1018.4
20260507185011 71 231 0.0 4.3 0.00 0.00 0.00 47 1018.3
20260507184510 71 241 0.9 5.2 0.00 0.00 0.00 46 1018.4
20260507184009 71 244 0.9 5.2 0.00 0.00 0.00 46 1018.5
20260507183508 71 207 0.9 2.6 0.00 0.00 0.00 50 1018.4
20260507183016 71 172 0.9 2.6 0.00 0.00 0.00 46 1018.4
20260507182506 70 299 0.0 3.5 0.00 0.00 0.00 49 1018.4
20260507182007 70 259 0.0 5.2 0.00 0.00 0.00 48 1018.4
20260507181506 70 276 0.9 5.2 0.00 0.00 0.00 49 1018.5
20260507181003 69 210 0.0 4.3 0.00 0.00 0.00 52 1018.6
20260507180504 69 222 0.9 4.3 0.00 0.00 0.00 48 1018.5
20260507180007 69 144 0.9 4.3 0.00 0.00 0.00 50 1018.6
20260507175506 69 241 1.7 4.3 0.00 0.00 0.00 48 1018.6
20260507175001 69 250 0.0 3.5 0.00 0.00 0.00 51 1018.5
20260507174502 68 253 0.0 3.5 0.00 0.00 0.00 53 1018.6
20260507174100 69 233 0.9 3.5 0.00 0.00 0.00 48 1018.6
20260507173559 68 209 0.0 3.5 0.00 0.00 0.00 49 1018.6
20260507173059 68 259 0.9 3.5 0.00 0.00 0.00 49 1018.7
20260507172559 68 166 0.9 3.5 0.00 0.00 0.00 50 1018.7
20260507172056 67 210 0.0 3.5 0.00 0.00 0.00 52 1018.6
20260507171602 66 243 0.0 4.3 0.00 0.00 0.00 51 1018.6
20260507171056 67 262 0.9 4.3 0.00 0.00 0.00 50 1018.7
20260507170557 67 242 0.0 3.5 0.00 0.00 0.00 51 1018.6
20260507170055 67 200 0.0 2.6 0.00 0.00 0.00 52 1018.6
20260507165552 65 350 0.0 3.5 0.00 0.00 0.00 51 1018.6
20260507165054 65 247 0.9 3.5 0.00 0.00 0.00 50 1018.7
20260507164555 65 265 0.0 2.6 0.00 0.00 0.00 51 1018.7
20260507164052 65 248 0.9 2.6 0.00 0.00 0.00 51 1018.8
20260507163550 65 212 0.0 1.7 0.00 0.00 0.00 56 1018.7
20260507163049 64 226 0.0 1.7 0.00 0.00 0.00 52 1018.8
20260507162548 64 243 0.0 3.5 0.00 0.00 0.00 55 1018.9
20260507162051 64 245 0.0 3.5 0.00 0.00 0.00 52 1018.9
20260507161547 64 254 0.0 1.7 0.00 0.00 0.00 53 1018.8
20260507161046 63 272 0.0 1.7 0.00 0.00 0.00 53 1018.7
20260507160547 63 243 0.0 1.7 0.00 0.00 0.00 54 1018.8
20260507160051 63 268 0.0 0.9 0.00 0.00 0.00 57 1018.8
20260507155542 62 212 0.0 1.7 0.00 0.00 0.00 56 1018.8
20260507155045 62 210 0.0 1.7 0.00 0.00 0.00 55 1018.9
20260507154542 61 257 0.0 1.7 0.00 0.00 0.00 56 1018.9
20260507154041 61 196 0.0 1.7 0.00 0.00 0.00 57 1018.9
20260507153541 61 257 0.0 1.7 0.00 0.00 0.00 56 1019.0
20260507153045 60 265 0.0 1.7 0.00 0.00 0.00 57 1019.0
20260507152536 60 245 0.0 1.7 0.00 0.00 0.00 56 1019.1
20260507152034 59 262 0.0 1.7 0.00 0.00 0.00 58 1018.9
20260507151534 59 245 0.0 0.9 0.00 0.00 0.00 58 1018.9
20260507151031 58 34 0.0 0.0 0.00 0.00 0.00 59 1018.9
20260507150533 58 35 0.0 0.0 0.00 0.00 0.00 61 1018.9
20260507150029 57 35 0.0 0.0 0.00 0.00 0.00 64 1019.0
20260507145532 56 35 0.0 0.9 0.00 0.00 0.00 63 1019.0
20260507145025 55 35 0.0 0.9 0.00 0.00 0.00 65 1019.0
20260507144525 54 35 0.0 0.9 0.00 0.00 0.00 67 1019.0
20260507144023 54 35 0.0 0.0 0.00 0.00 0.00 67 1019.1
20260507143525 53 35 0.0 0.9 0.00 0.00 0.00 68 1019.0
20260507143021 53 35 0.9 0.0 0.00 0.00 0.00 68 1019.0
20260507142520 53 35 0.0 1.7 0.00 0.00 0.00 68 1018.9
20260507142019 52 35 0.9 1.7 0.00 0.00 0.00 68 1018.9
20260507141518 52 35 0.9 1.7 0.00 0.00 0.00 68 1019.0
20260507141021 52 35 0.9 1.7 0.00 0.00 0.00 67 1018.9
20260507140518 52 35 0.9 1.7 0.00 0.00 0.00 66 1018.9
20260507140020 52 35 0.9 1.7 0.00 0.00 0.00 66 1018.7
20260507135518 52 35 0.9 1.7 0.00 0.00 0.00 66 1018.7
20260507135018 52 35 0.9 1.7 0.00 0.00 0.00 66 1018.7
20260507134520 52 35 1.7 1.7 0.00 0.00 0.00 66 1018.7
20260507134015 52 35 0.9 1.7 0.00 0.00 0.00 66 1018.7
20260507133516 52 35 0.9 1.7 0.00 0.00 0.00 66 1018.6
20260507133015 51 35 0.9 1.7 0.00 0.00 0.00 66 1018.7
20260507132515 51 35 1.7 1.7 0.00 0.00 0.00 67 1018.7
20260507132014 51 35 1.7 1.7 0.00 0.00 0.00 67 1018.7
20260507131514 51 35 1.7 1.7 0.00 0.00 0.00 67 1018.7
20260507131014 51 35 0.9 1.7 0.00 0.00 0.00 67 1018.7
20260507130515 51 35 1.7 1.7 0.00 0.00 0.00 66 1018.7
20260507130013 52 35 0.9 1.7 0.00 0.00 0.00 65 1018.7
20260507125517 52 35 0.9 1.7 0.00 0.00 0.00 66 1018.7
20260507125012 51 35 0.9 1.7 0.00 0.00 0.00 66 1018.7
20260507124512 51 35 1.7 1.7 0.00 0.00 0.00 66 1018.7
20260507124012 52 35 1.7 1.7 0.00 0.00 0.00 66 1018.7
20260507123512 52 35 0.9 1.7 0.00 0.00 0.00 66 1018.7
20260507123010 52 35 1.7 1.7 0.00 0.00 0.00 66 1018.7
20260507122510 52 35 1.7 1.7 0.00 0.00 0.00 66 1018.8
20260507122010 52 35 1.7 1.7 0.00 0.00 0.00 66 1018.8
20260507121509 52 35 1.7 1.7 0.00 0.00 0.00 66 1018.9
20260507121012 52 35 1.7 1.7 0.00 0.00 0.00 66 1018.9
20260507120508 52 35 1.7 1.7 0.00 0.00 0.00 66 1018.9
20260507120008 52 35 0.9 1.7 0.00 0.00 0.00 65 1018.9
20260507115508 52 35 0.9 1.7 0.00 0.00 0.00 66 1018.8
20260507115010 52 35 1.7 1.7 0.00 0.00 0.00 66 1018.9
20260507114509 52 35 1.7 1.7 0.00 0.00 0.00 65 1018.9
20260507114007 52 35 1.7 1.7 0.00 0.00 0.00 65 1018.9
20260507113507 52 35 0.9 1.7 0.00 0.00 0.00 65 1019.0
20260507113006 52 35 1.7 1.7 0.00 0.00 0.00 65 1018.9
20260507112505 53 35 1.7 1.7 0.00 0.00 0.00 65 1019.0
20260507112005 52 35 1.7 1.7 0.00 0.00 0.00 65 1019.0
20260507111509 52 35 1.7 1.7 0.00 0.00 0.00 65 1019.0
20260507111003 52 35 1.7 1.7 0.00 0.00 0.00 65 1019.1
20260507110505 52 35 1.7 1.7 0.00 0.00 0.00 65 1019.0
20260507110003 52 35 1.7 1.7 0.00 0.00 0.00 66 1019.0
20260507105503 52 35 1.7 1.7 0.00 0.00 0.00 66 1019.0
20260507105003 52 35 1.7 1.7 0.00 0.00 0.00 65 1019.0
20260507104502 53 35 1.7 1.7 0.00 0.00 0.00 64 1019.1
20260507104101 53 35 1.7 1.7 0.00 0.00 0.00 64 1019.1
20260507103559 53 35 0.9 1.7 0.00 0.00 0.00 64 1019.1
20260507103057 53 35 1.7 1.7 0.00 0.00 0.00 64 1019.2
20260507102559 53 35 1.7 1.7 0.00 0.00 0.00 65 1019.2
20260507102057 53 35 0.9 1.7 0.00 0.00 0.00 65 1019.2
20260507101557 52 35 1.7 1.7 0.00 0.00 0.00 66 1019.1
20260507101056 52 34 1.7 1.7 0.00 0.00 0.00 66 1019.4
20260507100556 53 34 1.7 1.7 0.00 0.00 0.00 65 1019.2
20260507100058 53 34 0.9 1.7 0.00 0.00 0.00 65 1019.3
20260507095556 52 34 0.9 1.7 0.00 0.00 0.00 66 1019.1
20260507095056 53 34 1.7 1.7 0.00 0.00 0.00 65 1019.3
20260507094556 52 34 0.9 1.7 0.00 0.00 0.00 66 1019.2
20260507094054 52 34 1.7 1.7 0.00 0.00 0.00 66 1019.3
20260507093554 52 34 1.7 1.7 0.00 0.00 0.00 67 1019.3
20260507093053 52 34 1.7 1.7 0.00 0.00 0.00 67 1019.4
20260507092553 52 34 1.7 1.7 0.00 0.00 0.00 66 1019.4
20260507092051 52 34 0.9 1.7 0.00 0.00 0.00 66 1019.5
20260507091552 53 34 1.7 1.7 0.00 0.00 0.00 66 1019.5
20260507091051 53 34 0.9 1.7 0.00 0.00 0.00 66 1019.6
20260507090550 52 34 1.7 1.7 0.00 0.00 0.00 67 1019.6
20260507090051 52 34 1.7 1.7 0.00 0.00 0.00 67 1019.6
20260507085553 52 34 1.7 1.7 0.00 0.00 0.00 67 1019.6
20260507085050 52 34 0.9 1.7 0.00 0.00 0.00 67 1019.7
20260507084554 52 34 1.7 1.7 0.00 0.00 0.00 67 1019.7
20260507084149 52 34 1.7 1.7 0.00 0.00 0.00 67 1019.7
20260507083548 53 34 0.9 1.7 0.00 0.00 0.00 66 1019.7
20260507083050 52 34 1.7 1.7 0.00 0.00 0.00 67 1019.9
20260507082546 52 34 1.7 1.7 0.00 0.00 0.00 67 1019.9
20260507082051 52 34 0.9 1.7 0.00 0.00 0.00 67 1019.9
20260507081546 52 34 1.7 1.7 0.00 0.00 0.00 68 1019.9
20260507081046 52 34 1.7 1.7 0.00 0.00 0.00 68 1019.9
20260507080545 52 34 1.7 1.7 0.00 0.00 0.00 67 1019.9
20260507080111 52 34 0.9 1.7 0.00 0.00 0.00 67 1019.9
20260507075548 52 34 1.7 1.7 0.00 0.00 0.00 67 1019.9
20260507075045 52 34 0.9 1.7 0.00 0.00 0.00 67 1019.8
20260507074547 53 34 0.9 1.7 0.00 0.00 0.00 66 1019.9
20260507074042 53 34 1.7 1.7 0.00 0.00 0.00 66 1019.8
20260507073541 53 34 0.9 1.7 0.00 0.00 0.00 66 1019.8
20260507073042 53 34 1.7 1.7 0.00 0.00 0.00 67 1019.9
20260507072540 53 34 1.7 1.7 0.00 0.00 0.00 67 1019.9
20260507072044 52 34 1.7 1.7 0.00 0.00 0.00 67 1020.0
20260507071556 52 34 1.7 1.7 0.00 0.00 0.00 68 1019.9
20260507071038 53 34 0.9 1.7 0.00 0.00 0.00 67 1020.0
20260507070537 53 34 1.7 1.7 0.00 0.00 0.00 67 1020.0
20260507070037 53 34 1.7 1.7 0.00 0.00 0.00 67 1020.1
20260507065535 53 34 1.7 1.7 0.00 0.00 0.00 66 1020.0
20260507065035 53 34 1.7 1.7 0.00 0.00 0.00 66 1020.0
20260507064535 53 34 0.9 1.7 0.00 0.00 0.00 66 1020.1
20260507064036 53 34 1.7 1.7 0.00 0.00 0.00 67 1020.0
20260507063535 52 34 1.7 1.7 0.00 0.00 0.00 68 1020.0
20260507063038 53 34 0.9 1.7 0.00 0.00 0.00 67 1020.0
20260507062535 53 33 1.7 1.7 0.00 0.00 0.00 66 1019.9
20260507062034 53 33 0.9 1.7 0.00 0.00 0.00 66 1019.9
20260507061536 53 33 1.7 1.7 0.00 0.00 0.00 67 1019.9
20260507061033 53 33 1.7 1.7 0.00 0.00 0.00 66 1019.8
20260507060533 53 33 0.9 1.7 0.00 0.00 0.00 66 1019.9
20260507060033 53 33 1.7 1.7 0.00 0.00 0.00 66 1019.9
20260507055533 53 33 0.9 1.7 0.00 0.00 0.00 67 1019.9
20260507055032 53 33 0.9 1.7 0.00 0.00 0.00 67 1019.9
20260507054532 53 33 1.7 1.7 0.00 0.00 0.00 67 1019.9
20260507054032 53 33 0.0 1.7 0.00 0.00 0.00 67 1019.9
20260507053533 53 33 0.9 1.7 0.00 0.00 0.00 67 1019.9
20260507053032 53 33 0.9 1.7 0.00 0.00 0.00 67 1019.9
20260507052534 54 33 0.9 1.7 0.00 0.00 0.00 66 1019.8
20260507052031 54 33 0.9 1.7 0.00 0.00 0.00 66 1019.8
20260507051531 54 33 0.9 1.7 0.00 0.00 0.00 66 1019.9
20260507051030 54 33 0.9 1.7 0.00 0.00 0.00 67 1019.8
20260507050530 54 33 0.9 1.7 0.00 0.00 0.00 66 1019.9
20260507050031 54 33 0.9 1.7 0.00 0.00 0.00 66 1019.9
20260507045530 54 33 0.9 1.7 0.00 0.00 0.00 66 1019.9
20260507045030 54 33 0.9 1.7 0.00 0.00 0.00 66 1019.9
20260507044533 54 33 0.9 1.7 0.00 0.00 0.00 67 1019.7
20260507044030 54 31 1.7 1.7 0.00 0.00 0.00 66 1019.8
20260507043530 54 30 0.9 1.7 0.00 0.00 0.00 66 1019.7
20260507043035 54 30 0.9 1.7 0.00 0.00 0.00 66 1019.7
20260507042530 54 30 0.9 1.7 0.00 0.00 0.00 65 1019.7
20260507042029 55 30 0.9 1.7 0.00 0.00 0.00 65 1019.6
20260507041529 55 30 0.9 1.7 0.00 0.00 0.00 65 1019.7
20260507041030 55 30 0.9 1.7 0.00 0.00 0.00 66 1019.7
20260507040530 55 30 0.9 1.7 0.00 0.00 0.00 66 1019.7
20260507040032 55 30 0.9 0.0 0.00 0.00 0.00 65 1019.6
20260507035528 55 30 0.0 1.7 0.00 0.00 0.00 65 1019.4
20260507035028 55 30 0.9 1.7 0.00 0.00 0.00 65 1019.3
20260507034527 55 30 0.9 1.7 0.00 0.00 0.00 65 1019.3
20260507034029 55 30 0.9 1.7 0.00 0.00 0.00 65 1019.2